Flag for Thailand Weather past 2 weeks in Hat Yai, Thailand

Now
77 °F

Passing clouds.


Feels Like: 78 °F
Forecast: 76 / 88 °F
Wind: 2 mph from Southeast

Location: Hat Yai Airport

Current Time: Sep 1, 2015 at 12:56:49 AM

Latest Report: Sep 1, 2015 at 12:30 AM


Visibility: 5 mi

Pressure: 29.89 "Hg

Humidity: 100%

Dew point: 77 °F

Location of Hat YaiLocation

Historic Weather in Hat Yai — Graph

°F

Hat Yai temperature yesterday

Maximum temperature yesterday: 90 °F (at 1:00 PM)
Minimum temperature yesterday: 75 °F (at 4:30 AM)
Average temperature yesterday: 82 °F

Past Weeks' High & Low Weather Summary

 TemperatureHumidityPressure
High95 °F (Aug 29, 2:00 PM)100% (Aug 16, 11:00 PM)29.92 "Hg (Aug 16, 11:00 PM)
Low73 °F (Aug 17, 2:00 AM)49% (Aug 29, 1:00 PM)29.71 "Hg (Aug 29, 3:30 PM)
Average81 °F84%29.83 "Hg
* Reported Aug 16 11:00 PM — Aug 31 11:30 PM, Hat Yai, Weather by CustomWeather, © 2015

Note: Actual official high and low records may vary slightly from our data, if they occured in-between our weather recording intervals... More about our weather records

Advertising

Hat Yai weather history for previous 24 hours

 ConditionsComfort  
Time TempWeatherWind HumidityBarometerVisibility
11:30 PM
Mon, Aug 31
79 °FPartly cloudy.2 mph94%29.89 "HgN/A
11:00 PM79 °FPartly cloudy.2 mph94%29.89 "HgN/A
10:30 PM79 °FPartly cloudy.2 mph94%29.89 "HgN/A
10:00 PM81 °FPartly cloudy.2 mph89%29.89 "HgN/A
9:30 PM81 °FPartly cloudy.No wind89%29.89 "HgN/A
9:00 PM81 °FPartly cloudy.3 mph89%29.86 "HgN/A
8:30 PM81 °FPartly cloudy.3 mph89%29.86 "HgN/A
8:00 PM81 °FPartly cloudy.3 mph89%29.83 "HgN/A
7:30 PM82 °FPartly cloudy.5 mph84%29.83 "HgN/A
7:00 PM82 °FPartly cloudy.3 mph84%29.80 "HgN/A
6:30 PM82 °FPartly cloudy.3 mph84%29.80 "HgN/A
6:00 PM84 °FBroken clouds.7 mph74%29.80 "Hg6 mi
5:30 PM84 °FBroken clouds.7 mph79%29.80 "Hg6 mi
5:00 PM88 °FBroken clouds.9 mph66%29.80 "Hg6 mi
4:30 PM90 °FPartly sunny.6 mph63%29.80 "Hg6 mi
4:00 PM90 °FPartly sunny.6 mph59%29.80 "Hg6 mi
3:30 PM90 °FPartly sunny.6 mph63%29.80 "Hg5 mi
3:00 PM90 °FPartly sunny.8 mph59%29.80 "Hg6 mi
2:30 PM90 °FPartly sunny.8 mph59%29.80 "HgN/A
2:00 PM90 °FPartly sunny.8 mph59%29.83 "HgN/A
1:30 PM90 °FPartly sunny.7 mph59%29.83 "HgN/A
1:00 PM90 °FPartly sunny.7 mph67%29.86 "HgN/A
12:30 PM88 °FPartly sunny.8 mph66%29.89 "HgN/A
12:00 PM88 °FPartly sunny.8 mph66%29.89 "HgN/A
11:30 AM86 °FPartly sunny.8 mph70%29.89 "HgN/A
11:00 AM84 °FPartly sunny.6 mph74%29.89 "HgN/A
10:30 AM84 °FPartly sunny.8 mph74%29.89 "HgN/A
10:00 AM82 °FBroken clouds.6 mph79%29.89 "HgN/A
9:30 AM81 °FBroken clouds.9 mph84%29.92 "Hg6 mi
9:00 AM81 °FBroken clouds.10 mph89%29.92 "Hg4 mi
8:30 AM79 °FFog.3 mph94%29.89 "Hg3 mi
8:00 AM79 °FFog.2 mph94%29.89 "Hg2 mi
7:30 AM77 °FFog.3 mph94%29.86 "Hg2 mi
7:00 AM75 °FFog.2 mph100%29.86 "Hg1 mi
6:30 AM75 °FFog.3 mph100%29.86 "Hg1 mi
6:00 AM75 °FFog.2 mph100%29.83 "Hg1 mi
5:30 AM75 °FFog.2 mph100%29.83 "Hg2 mi
5:00 AM75 °FFog.No wind100%29.83 "Hg2 mi
4:30 AM75 °FFog.No wind100%29.86 "Hg2 mi
4:00 AM77 °FFog.2 mph94%29.83 "Hg2 mi
3:30 AM77 °FFog.No wind94%29.86 "Hg2 mi
3:00 AM77 °FFog.No wind94%29.86 "Hg3 mi
2:30 AM77 °FFog.No wind94%29.86 "Hg3 mi
2:00 AM77 °FFog.2 mph94%29.86 "Hg3 mi
1:30 AM77 °FFog.3 mph100%29.89 "Hg3 mi
1:00 AM77 °FPartly cloudy.No wind100%29.89 "Hg4 mi
12:30 AM79 °FPartly cloudy.2 mph94%29.89 "Hg4 mi
12:00 AM77 °FPartly cloudy.2 mph100%29.92 "Hg4 mi
Weather by CustomWeather, © 2015

See weather overviewHow to use our weather pages